Regional Weather Roundup
Issued by NWS

Home | Current Version | Previous Version | Text Only | Print | Product List | Glossary Off
Versions: 1 2 3 4 5 6 7 8 9 10 11 12 13 14 15 16 17 18 19 20 21 22 23 24 25 26 27 28 29 30 31 32 33 34 35 36 37 38 39 40 41 42 43 44 45 46 47 48 49 50

000
ASUS45 KSLC 181110
RWRUT

UTAH REGIONAL WEATHER ROUNDUP
NATIONAL WEATHER SERVICE SALT LAKE CITY UT
400 AM MST SUN FEB 18 2018

UTZ001>011-023>025-181200-

NORTHERN UTAH

CITY           SKY/WX    TMP DP  RH WIND       PRES   REMARKS
BRIGHAM CITY   CLOUDY    49  18  29 S18       29.59F
HILL AFB       CLOUDY    48  15  26 S21G31    29.60F
LOGAN          CLOUDY    56  19  23 SW21G32   29.56F
OGDEN          CLOUDY    50  15  24 S30G38    29.59F
SALT LAKE CITY CLOUDY    54  15  21 S24G38    29.63F
TOOELE VALLEY  CLOUDY    52  19  28 S28G35    29.64F
WENDOVER       CLOUDY    51  16  24 SW12      29.62F
HEBER CITY       N/A     45  12  26 SW14G25   29.69F
WEST JORDAN    CLOUDY    48  19  31 SE17G31   29.67F

$$

UTZ011>015-024>027-181200-

CENTRAL/NORTHEAST UTAH

CITY           SKY/WX    TMP DP  RH WIND       PRES   REMARKS
PROVO AIRPORT  CLOUDY    52  13  21 SW16G33   29.73F
MOAB/CANYONLAN PTCLDY    30  23  75 W6        29.81F WCI  24
DELTA          CLEAR     43  14  31 S22G29    29.75F
PRICE          CLEAR     27  17  66 CALM      29.81F
RICHFIELD      CLEAR     45  10  24 SW17G23   29.81F
ROOSEVELT      CLEAR     23  12  63 NW5       29.76F WCI  17
VERNAL         PTCLDY    25  12  58 NW5       29.74F WCI  19

$$

UTZ013>016-019>022-027-181200-

SOUTHERN UTAH

CITY           SKY/WX    TMP DP  RH WIND       PRES   REMARKS
BRYCE CANYON   CLEAR     29  17  61 W14       29.96F WCI  18
CEDAR CITY     CLEAR     37  19  48 SW15      29.89F WCI  28
MILFORD        CLEAR     41  15  35 S21       29.83F
ST GEORGE      PTSUNNY   38  30  73 CALM      29.95F
HANKSVILLE     PTCLDY    32  19  59 NW3       29.84F
KANAB          CLEAR     25  23  93 NE2       30.01F
BLANDING         N/A     28  17  64 NE6       30.04F WCI  21

$$

REGIONAL REPORTS     COLORADO/ARIZONA

CITY           SKY/WX    TMP DP  RH WIND       PRES   REMARKS
CRAIG, CO      MOCLDY    37  16  42 SW12      29.72F WCI  29
GRAND JUNCTION CLEAR     29  22  75 E3        29.85F
RIFLE, CO      PTCLDY    23  18  81 E3        29.86F
MONTROSE, CO   CLEAR     30  16  56 S10       29.93F WCI  21
CORTEZ, CO     PTCLDY    21  15  78 E5        29.99F WCI  15
COLORADO CITY    N/A     27  25  93 SE3       30.00F
PAGE, AZ       CLEAR     38  24  57 CALM      29.93F
GRAND CANYON   PTCLDY    22  21  96 CALM      30.02F
KINGMAN, AZ    CLEAR     36  26  67 E7        29.99F WCI  30
FLAGSTAFF, AZ  MOCLDY    31  29  92 SW3       30.04F

$$

REGIONAL REPORTS    NEVADA/IDAHO/WYOMING

CITY           SKY/WX    TMP DP  RH WIND       PRES   REMARKS
LAS VEGAS, NV  PTCLDY    47  21  35 W7        29.90F
ELY, NY        CLEAR     34  12  40 SW12      29.79F WCI  25
ELKO, NV       CLOUDY    46  26  45 SW16      29.67F
POCATELLO, ID  LGT RAIN  39  36  89 SW16      29.55F WCI  30
BURLEY, ID     LGT RAIN  35  33  92 W13G23    29.60R WCI  26
FORT BRIDGER,    N/A     42  13  30 W30G43    29.56F
EVANSTON, WY   CLOUDY    40  15  36 SW26G40   29.59F WCI  29
ROCK SPRINGS,  CLOUDY    40  10  29 SW23G33   29.56F WCI  30

$$



USA.gov is the U.S. government's official web portal to all federal, state and local government web resources and services.